9330 Limonite Avenue Riverside, CA 92509
Phone: 951.685.7034

Paradise Knolls Golf Course

LOWEST AVAILABLE RATE
$14.97
View ScorecardTotal Holes: 18

Paradise Knolls Golf Course

Paradise Knolls Golf Course, located east of Los Angeles in Riverside, CA is a 6,281 yard 18 hole course with a slope rating of 116. It is a wonderful walking golf course and a great option for beginners and amateurs. The length of the course is made interesting with plenty of drivable Par 4’s mixed in with challenging holes such as the 230 yard Par 3 12th, which caters toward lower handicappers. The golf course’s small, quick greens will keep golfers honest and require precision and patience. Renovations have been made to the 15th green as well as updates made to the club house. Located in the heart of Riverside since 1964, access to the course is easy, just off the 15 freeway.

 

Book your tee time online today through Golfzing for the cheapest rates. For information regarding events, lessons or tournaments, follow the links provided or contact the golf course for more details.

Amenities
Pro ShopRental ClubsPull Cart
RestaurantBar & GrillSnack Bar
Putting Green(s)Cart Rental 
Format: 2016-02-05
You don't have Javascript enabled. Hover for more information! But don't worry: you can still use this web site! You have two options:
  • enable Javascript in your browser and then refresh this page, for a much enhanced experience.
  • click the Update button every time you want to update the selection.

There are no upcoming events at this golf course.

Format: 2016-02-05

There were no specials found matching your criteria. Please try again.

 
Feel Like: 52.8 °F Last Updated: Friday February 5, 2016 11:23 PM
 Temperature: 52.8 °F
 Sunrise: 6:44 am 
 Sunset: 5:24 pm 
 Dewpoint: 24.8 °F
 Relative Humidity: 33.4
 Wind: 104 at 3.7 mph
 Barometer: 30.31 in and holding steady

Today Sat, 2/6 Sun, 2/7 Mon, 2/8 Tue, 2/9 Wed, 2/10 Thu, 2/11
High: 51
Low: 51
High: 82
Low: 53
High: 83
Low: 57
High: 83
Low: 51
High: 81
Low: 52
High: 80
Low: 51
High: 78
Low: 51
Mostly clear. Lows 44 to 52. Areas of winds north 15 to 25 mph. Gusts to 30 mph...Becoming 35 mph overnight
Mostly sunny. Highs 74 to 79. Areas of winds north 20 to 30 mph with gusts to 35 mph becoming east 15 to 25 mph with gusts to 40 mph in the afternoon
Sunny. Areas of blowing dust. Local visibility one quarter mile or less at times. Highs 79 to 84. Areas of winds north 20 to 30 mph. Gusts to 35 mph...Becoming 40 mph in the afternoon
Sunny. Areas of blowing dust. Local visibility one quarter mile or less at times. Windy. Highs 80 to 86
Sunny. Highs 81 to 87
Mostly sunny. Highs 78 to 83
Mostly sunny. Highs 77 to 82
Powered by WeatherBug

Fill in the form below.

9330 Limonite Avenue Riverside, CA 92509
Enter the address, postcode and/or city from where you want to start your journey.
Edward Gopez
Paul Hartman
Charlie Kim
Richard Braggins
JIM LOVESTROM
Mike Ketchum
Sunny Shebylo
Matthew Kimmons
Adam Jones
Mike Reyes
Ken Dungan
calcuzz
Gilbert Dizon
Mike D.
Joe Caperton
Ryan Godfrey
Book a Tee Time
Options
Ride
Walk
ZINGTIMES!
Search

Time
Players
Details
Price
Info
 

6:00 AM
9 holes Cart Included
$15.97$22.00
2,396 ZINGPOINTS!

6:07 AM
9 holes Cart Included
$22.00
3,300 ZINGPOINTS!

6:22 AM
18 holes Cart Included
$32.97$39.00
6,594 ZINGPOINTS!

6:45 AM
18 holes Cart Included
$29.97$39.00
5,994 ZINGPOINTS!

6:52 AM
18 holes Cart Included
$32.97$39.00
6,594 ZINGPOINTS!

6:59 AM
18 holes Cart Included
$32.97$39.00
6,594 ZINGPOINTS!

7:03 AM
9 holes Cart Included
$15.97$22.00
2,396 ZINGPOINTS!

7:10 AM
9 holes Cart Included
$22.00
3,300 ZINGPOINTS!

7:15 AM
18 holes Cart Included
$32.97$39.00
8,243 ZINGPOINTS!

7:30 AM
18 holes Cart Included
$32.97$39.00
8,243 ZINGPOINTS!

7:37 AM
18 holes Cart Included
$32.97$39.00
8,243 ZINGPOINTS!

7:52 AM
18 holes Cart Included
$32.97$39.00
8,243 ZINGPOINTS!

7:59 AM
18 holes Cart Included
$32.97$39.00
8,243 ZINGPOINTS!

8:22 AM
18 holes Cart Included
$29.97$39.00
5,994 ZINGPOINTS!

8:30 AM
18 holes Cart Included
$32.97$39.00
6,594 ZINGPOINTS!

8:52 AM
18 holes Cart Included
$32.97$39.00
6,594 ZINGPOINTS!

9:07 AM
18 holes Cart Included
$35.97$39.00
7,194 ZINGPOINTS!

9:22 AM
18 holes Cart Included
$35.97$39.00
7,194 ZINGPOINTS!

10:15 AM
18 holes Cart Included
$29.97$39.00
5,994 ZINGPOINTS!

10:22 AM
18 holes Cart Included
$29.97$39.00
5,994 ZINGPOINTS!

10:30 AM
18 holes Cart Included
$29.97$39.00
5,994 ZINGPOINTS!

10:45 AM
18 holes Cart Included
$27.97$39.00
5,594 ZINGPOINTS!

11:07 AM
18 holes Cart Included
$24.97$29.00
4,994 ZINGPOINTS!

11:15 AM
18 holes Cart Included
$24.97$29.00
4,994 ZINGPOINTS!

11:30 AM
18 holes Cart Included
$21.97$29.00
4,394 ZINGPOINTS!

11:37 AM
18 holes Cart Included
$18.97$29.00
3,794 ZINGPOINTS!

11:45 AM
18 holes Cart Included
$18.97$29.00
3,794 ZINGPOINTS!

11:52 AM
18 holes Cart Included
$18.97$29.00
3,794 ZINGPOINTS!

11:59 AM
18 holes Cart Included
$29.00
5,800 ZINGPOINTS!

12:00 PM
18 holes Cart Included
$18.97$29.00
3,794 ZINGPOINTS!

12:07 PM
18 holes Cart Included
$18.97$29.00
3,794 ZINGPOINTS!

12:15 PM
18 holes Cart Included
$18.97$29.00
3,794 ZINGPOINTS!

12:22 PM
18 holes Cart Included
$18.97$29.00
3,794 ZINGPOINTS!

12:30 PM
18 holes Cart Included
$18.97$29.00
3,794 ZINGPOINTS!

12:37 PM
18 holes Cart Included
$18.97$29.00
3,794 ZINGPOINTS!

12:45 PM
18 holes Cart Included
$29.00
5,800 ZINGPOINTS!

1:00 PM
18 holes Cart Included
$18.97$29.00
3,320 ZINGPOINTS!

1:07 PM
18 holes Cart Included
$18.97$29.00
3,320 ZINGPOINTS!

1:15 PM
18 holes Cart Included
$18.97$29.00
3,320 ZINGPOINTS!

1:22 PM
18 holes Cart Included
$18.97$29.00
3,320 ZINGPOINTS!

1:37 PM
18 holes Cart Included
$16.97$29.00
2,970 ZINGPOINTS!

1:45 PM
18 holes Cart Included
$16.97$29.00
2,970 ZINGPOINTS!

1:52 PM
18 holes Cart Included
$29.00
5,075 ZINGPOINTS!

2:00 PM
18 holes Cart Included
$19.00
3,800 ZINGPOINTS!

2:22 PM
18 holes Cart Included
$14.97$19.00
2,994 ZINGPOINTS!

2:30 PM
18 holes Cart Included
$14.97$19.00
2,994 ZINGPOINTS!

2:37 PM
18 holes Cart Included
$14.97$19.00
2,994 ZINGPOINTS!

2:45 PM
18 holes Cart Included
$14.97$19.00
2,994 ZINGPOINTS!

2:52 PM
18 holes Cart Included
$14.97$19.00
2,994 ZINGPOINTS!

2:59 PM
18 holes Cart Included
$14.97$19.00
2,994 ZINGPOINTS!

3:00 PM
18 holes Cart Included
$14.97$19.00
2,620 ZINGPOINTS!

3:07 PM
18 holes Cart Included
$14.97$19.00
2,620 ZINGPOINTS!

3:15 PM
18 holes Cart Included
$14.97$19.00
2,620 ZINGPOINTS!

3:22 PM
18 holes Cart Included
$14.97$19.00
2,620 ZINGPOINTS!

3:30 PM
18 holes Cart Included
$14.97$19.00
2,620 ZINGPOINTS!

3:37 PM
18 holes Cart Included
$14.97$19.00
2,620 ZINGPOINTS!

3:45 PM
18 holes Cart Included
$19.00
3,325 ZINGPOINTS!

4:00 PM
18 holes Cart Included
$14.97$19.00
2,620 ZINGPOINTS!

4:07 PM
18 holes Cart Included
$14.97$19.00
2,620 ZINGPOINTS!

4:15 PM
18 holes Cart Included
$14.97$19.00
2,620 ZINGPOINTS!

4:22 PM
18 holes Cart Included
$14.97$19.00
2,620 ZINGPOINTS!

4:30 PM
18 holes Cart Included
$14.97$19.00
2,620 ZINGPOINTS!

4:37 PM
18 holes Cart Included
$14.97$19.00
2,620 ZINGPOINTS!

4:45 PM
18 holes Cart Included
$19.00
3,325 ZINGPOINTS!

5:00 PM
18 holes Cart Included
$19.00
2,850 ZINGPOINTS!

5:07 PM
18 holes Cart Included
$19.00
2,850 ZINGPOINTS!

5:15 PM
18 holes Cart Included
$19.00
2,850 ZINGPOINTS!

5:22 PM
18 holes Cart Included
$19.00
2,850 ZINGPOINTS!

5:30 PM
18 holes Cart Included
$19.00
2,850 ZINGPOINTS!

5:37 PM
18 holes Cart Included
$19.00
2,850 ZINGPOINTS!

5:59 PM
18 holes Cart Included
$19.00
2,850 ZINGPOINTS!

Tee Times and Golf Course Discounts